Torna al catalogo

STARLINK-2237

AttivoComunicazioniVLEO
NORAD 48583·PAYLOAD·🇺🇸 United States

Lanciato May 15, 2021 da Cape Canaveral Space Force Station

Loading…

Prossimi Passaggi (prossime 24 ore)

TLE

AggiornatoSource: CelesTrak SupGP

Epoca: Sep 14, 2026, 21:06 UTC

1 48583C 21041AG  26257.87965278 -.00030318  00000+0 -97497-3 0  2572
2 48583  53.1597 348.5402 0001225  76.9406 143.3029 15.31716878    18

Traccia STARLINK-2237 in tempo reale con AllMySat

Download on the App Store